TimeEST,TemperatureF,Dew PointF,Humidity,Sea Level PressureIn,VisibilityMPH,Wind Direction,Wind SpeedMPH,Gust SpeedMPH,PrecipitationIn,Events,Conditions,WindDirDegrees,DateUTC
12:15 AM,-0.4,-23.8,32,30.04,10.0,West,6.9,-,N/A,,Clear,270,2013-01-24 05:15:00
12:35 AM,-0.4,-27.4,27,30.04,10.0,West,8.1,-,N/A,,Clear,280,2013-01-24 05:35:00
12:55 AM,-0.4,-27.4,27,30.04,10.0,WNW,9.2,-,N/A,,Clear,290,2013-01-24 05:55:00
1:15 AM,-0.4,-27.4,27,30.03,10.0,West,10.4,-,N/A,,Clear,280,2013-01-24 06:15:00
1:35 AM,-0.4,-27.4,27,30.04,10.0,West,8.1,-,N/A,,Clear,270,2013-01-24 06:35:00
1:55 AM,-0.4,-27.4,27,30.04,10.0,West,11.5,-,N/A,,Clear,280,2013-01-24 06:55:00
2:15 AM,-0.4,-25.6,30,30.04,10.0,West,12.7,-,N/A,,Clear,270,2013-01-24 07:15:00
2:35 AM,-2.2,-23.8,35,30.04,10.0,West,10.4,-,N/A,,Clear,270,2013-01-24 07:35:00
2:55 AM,-2.2,-25.6,32,30.03,10.0,West,11.5,-,N/A,,Clear,270,2013-01-24 07:55:00
3:15 AM,-2.2,-22.0,39,30.02,10.0,West,11.5,16.1,N/A,,Clear,260,2013-01-24 08:15:00
3:35 AM,-2.2,-23.8,35,30.03,10.0,West,10.4,-,N/A,,Clear,280,2013-01-24 08:35:00
3:55 AM,-2.2,-22.0,39,30.02,10.0,West,9.2,-,N/A,,Clear,280,2013-01-24 08:55:00
4:15 AM,-2.2,-23.8,35,30.02,10.0,WNW,4.6,-,N/A,,Clear,290,2013-01-24 09:15:00
4:35 AM,-2.2,-23.8,35,30.02,10.0,WNW,4.6,-,N/A,,Clear,290,2013-01-24 09:35:00
4:55 AM,-2.2,-22.0,39,30.01,10.0,WSW,6.9,-,N/A,,Clear,250,2013-01-24 09:55:00
5:15 AM,-2.2,-23.8,35,30.01,10.0,West,6.9,-,N/A,,Clear,280,2013-01-24 10:15:00
5:35 AM,-2.2,-23.8,35,30.02,10.0,West,5.8,-,N/A,,Clear,270,2013-01-24 10:35:00
5:55 AM,-2.2,-20.2,42,30.02,10.0,West,9.2,-,N/A,,Clear,280,2013-01-24 10:55:00
6:15 AM,-2.2,-23.8,35,30.03,10.0,WNW,6.9,-,N/A,,Clear,290,2013-01-24 11:15:00
6:35 AM,-2.2,-20.2,42,30.02,10.0,West,11.5,-,N/A,,Clear,260,2013-01-24 11:35:00
6:55 AM,-2.2,-23.8,35,30.02,10.0,West,10.4,-,N/A,,Clear,280,2013-01-24 11:55:00
7:15 AM,-2.2,-23.8,35,30.03,10.0,West,10.4,-,N/A,,Clear,270,2013-01-24 12:15:00
7:35 AM,-2.2,-20.2,42,30.03,10.0,West,11.5,-,N/A,,Clear,270,2013-01-24 12:35:00
7:55 AM,-2.2,-23.8,35,30.03,10.0,West,11.5,-,N/A,,Clear,270,2013-01-24 12:55:00
8:15 AM,-0.4,-20.2,39,30.03,10.0,West,11.5,16.1,N/A,,Clear,280,2013-01-24 13:15:00
8:35 AM,-0.4,-23.8,32,30.04,10.0,WNW,10.4,17.3,N/A,,Clear,290,2013-01-24 13:35:00
8:55 AM,1.4,-20.2,36,30.04,10.0,WNW,13.8,20.7,N/A,,Clear,290,2013-01-24 13:55:00
9:15 AM,3.2,-20.2,33,30.03,10.0,West,12.7,-,N/A,,Mostly Cloudy,280,2013-01-24 14:15:00
9:35 AM,3.2,-20.2,33,30.03,10.0,West,16.1,21.9,N/A,,Mostly Cloudy,280,2013-01-24 14:35:00
9:55 AM,5.0,-20.2,30,30.03,10.0,WNW,15.0,23.0,N/A,,Partly Cloudy,300,2013-01-24 14:55:00
10:15 AM,6.8,-18.4,31,30.04,10.0,WNW,10.4,-,N/A,,Clear,290,2013-01-24 15:15:00
10:35 AM,6.8,-20.2,28,30.03,10.0,West,13.8,19.6,N/A,,Clear,270,2013-01-24 15:35:00
10:55 AM,8.6,-16.6,31,30.03,10.0,West,11.5,19.6,N/A,,Clear,280,2013-01-24 15:55:00
11:15 AM,8.6,-18.4,28,30.02,10.0,WNW,12.7,21.9,N/A,,Clear,300,2013-01-24 16:15:00
11:35 AM,10.4,-18.4,26,30.01,10.0,West,13.8,19.6,N/A,,Clear,270,2013-01-24 16:35:00
11:55 AM,10.4,-18.4,26,30.00,10.0,WNW,13.8,26.5,N/A,,Clear,290,2013-01-24 16:55:00
12:15 PM,10.4,-18.4,26,30.00,10.0,West,16.1,24.2,N/A,,Scattered Clouds,280,2013-01-24 17:15:00
12:35 PM,12.2,-18.4,24,29.98,10.0,West,17.3,24.2,N/A,,Mostly Cloudy,270,2013-01-24 17:35:00
12:55 PM,12.2,-18.4,24,29.98,10.0,West,19.6,24.2,N/A,,Mostly Cloudy,270,2013-01-24 17:55:00
1:15 PM,12.2,-18.4,24,29.97,10.0,West,20.7,31.1,N/A,,Mostly Cloudy,270,2013-01-24 18:15:00
1:35 PM,12.2,-18.4,24,29.97,10.0,WNW,19.6,27.6,N/A,,Overcast,290,2013-01-24 18:35:00
1:55 PM,12.2,-20.2,22,29.96,10.0,WNW,17.3,29.9,N/A,,Mostly Cloudy,290,2013-01-24 18:55:00
2:15 PM,10.4,-18.4,26,29.96,10.0,West,21.9,31.1,N/A,,Scattered Clouds,280,2013-01-24 19:15:00
2:35 PM,10.4,-18.4,26,29.97,10.0,West,15.0,23.0,N/A,,Clear,280,2013-01-24 19:35:00
2:55 PM,10.4,-18.4,26,29.97,10.0,West,20.7,27.6,N/A,,Clear,280,2013-01-24 19:55:00
3:15 PM,10.4,-18.4,26,29.96,10.0,West,23.0,28.8,N/A,,Clear,280,2013-01-24 20:15:00
3:35 PM,10.4,-18.4,26,29.97,10.0,West,19.6,26.5,N/A,,Clear,270,2013-01-24 20:35:00
3:55 PM,10.4,-20.2,24,29.97,10.0,West,16.1,25.3,N/A,,Clear,280,2013-01-24 20:55:00
4:15 PM,10.4,-20.2,24,29.96,10.0,West,27.6,33.4,N/A,,Clear,280,2013-01-24 21:15:00
4:35 PM,10.4,-20.2,24,29.98,10.0,West,18.4,34.5,N/A,,Clear,280,2013-01-24 21:35:00
4:55 PM,10.4,-20.2,24,29.98,10.0,West,18.4,31.1,N/A,,Clear,270,2013-01-24 21:55:00
5:15 PM,10.4,-18.4,26,29.98,10.0,WNW,15.0,27.6,N/A,,Clear,290,2013-01-24 22:15:00
5:35 PM,10.4,-18.4,26,29.99,10.0,WNW,15.0,29.9,N/A,,Clear,290,2013-01-24 22:35:00
5:55 PM,10.4,-18.4,26,30.00,10.0,WNW,12.7,20.7,N/A,,Clear,290,2013-01-24 22:55:00
6:15 PM,10.4,-18.4,26,30.01,10.0,West,13.8,21.9,N/A,,Clear,280,2013-01-24 23:15:00
6:35 PM,10.4,-18.4,26,30.02,10.0,West,13.8,24.2,N/A,,Clear,280,2013-01-24 23:35:00
6:55 PM,10.4,-18.4,26,30.02,10.0,West,17.3,27.6,N/A,,Clear,280,2013-01-24 23:55:00
7:15 PM,10.4,-18.4,26,30.03,10.0,WNW,12.7,27.6,N/A,,Clear,290,2013-01-25 00:15:00
7:35 PM,8.6,-16.6,31,30.04,10.0,NW,10.4,26.5,N/A,,Clear,310,2013-01-25 00:35:00
7:55 PM,8.6,-18.4,28,30.06,10.0,West,9.2,19.6,N/A,,Clear,280,2013-01-25 00:55:00
8:35 PM,8.6,-16.6,31,30.06,10.0,West,20.7,28.8,N/A,,Clear,270,2013-01-25 01:35:00
8:55 PM,6.8,-13.0,40,30.07,10.0,WNW,18.4,27.6,N/A,,Clear,290,2013-01-25 01:55:00
9:15 PM,6.8,-16.6,34,30.08,10.0,WNW,15.0,25.3,N/A,,Clear,300,2013-01-25 02:15:00
9:35 PM,6.8,-13.0,40,30.08,10.0,WNW,13.8,25.3,N/A,,Clear,300,2013-01-25 02:35:00
9:55 PM,6.8,-14.8,37,30.10,10.0,WNW,17.3,24.2,N/A,,Clear,300,2013-01-25 02:55:00
10:15 PM,6.8,-20.2,28,30.09,10.0,WNW,18.4,26.5,N/A,,Clear,300,2013-01-25 03:15:00
10:35 PM,6.8,-0.4,72,30.11,10.0,WNW,11.5,20.7,N/A,,Clear,290,2013-01-25 03:35:00
10:55 PM,6.8,-25.6,21,30.09,10.0,West,16.1,23.0,N/A,,Clear,270,2013-01-25 03:55:00
11:15 PM,5.0,-5.8,61,30.12,10.0,NNW,4.6,-,N/A,,Clear,330,2013-01-25 04:15:00
11:35 PM,5.0,-18.4,33,30.13,10.0,WNW,5.8,17.3,N/A,,Clear,300,2013-01-25 04:35:00
11:55 PM,5.0,-20.2,30,30.11,10.0,WNW,9.2,25.3,N/A,,Clear,300,2013-01-25 04:55:00